Waarnemingen

Advertentie
Mijn weer
Dinard, Frankrijk (7125): temperatuur & dauwpunt: 13.09.2019 07:00:00 - 19.09.2019 07:00:00 (CEST)Dinard, Frankrijk (7125): temperatuur 5cm: 13.09.2019 07:00:00 - 19.09.2019 07:00:00 (CEST)Dinard, Frankrijk (7125): temperatuur -20cm: 13.09.2019 07:00:00 - 19.09.2019 07:00:00 (CEST)Dinard, Frankrijk (7125): windsnelheid & windstoten: 13.09.2019 07:00:00 - 19.09.2019 07:00:00 (CEST)Dinard, Frankrijk (7125): windrichting: 13.09.2019 07:00:00 - 19.09.2019 07:00:00 (CEST)Dinard, Frankrijk (7125): luchtdruk: 13.09.2019 07:00:00 - 19.09.2019 07:00:00 (CEST)Dinard, Frankrijk (7125): zicht: 13.09.2019 07:00:00 - 19.09.2019 07:00:00 (CEST)Dinard, Frankrijk (7125): Zonneschijnduur: 13.09.2019 07:00:00 - 19.09.2019 07:00:00 (CEST)Dinard, Frankrijk (7125): neerslag: 13.09.2019 07:00:00 - 19.09.2019 07:00:00 (CEST)
Datum & Tijd tt [°C] td [°C] tt 5cm [°C] tt -20cm [°C] ff [km/u] ff [kn] fx [km/u] fx [kn] dd ppp [hPa] vv [km] sd [min] rr [mm]
19.09.2019 07:00:00 11,4 8,3 10,3 17,0 14 7 23 12 ONO 1027,6 33 0 0,0
19.09.2019 06:00:00 11,7 8,4 10,6 17,2 13 7 31 17 O 1027,7 35 0 0,0
19.09.2019 05:00:00 12,4 8,5 - - 16 9 34 18 ONO 1027,7 50 - -
19.09.2019 04:00:00 12,8 8,9 - - 15 8 28 15 ONO 1027,8 50 - 0,0
19.09.2019 03:00:00 13,1 9,7 12,1 17,8 15 8 29 16 ONO 1028,0 32 0 0,0
19.09.2019 02:00:00 13,7 10,1 12,9 18,0 18 10 38 20 ONO 1028,0 31 0 0,0
19.09.2019 01:00:00 14,3 10,5 13,2 18,2 22 12 38 20 ONO 1027,9 29 0 0,0
19.09.2019 00:00:00 14,4 11,0 13,5 18,4 20 11 42 23 ONO 1027,7 28 0 0,0
18.09.2019 23:00:00 14,6 11,2 - - 24 13 44 24 NO 1027,2 26 - -
18.09.2019 22:00:00 14,7 10,7 13,8 18,7 18 10 38 20 NO 1026,8 27 0 0,0
18.09.2019 21:00:00 15,5 10,5 14,6 18,8 22 12 44 24 NO 1026,3 29 0 0,0
18.09.2019 20:00:00 16,5 9,9 16,2 18,8 28 15 46 25 NO 1025,6 36 52 0,0
18.09.2019 19:00:00 18,1 9,4 19,3 18,7 23 13 48 26 NO 1025,3 34 60 0,0
18.09.2019 18:00:00 19,1 8,4 21,2 18,4 26 14 46 25 NO 1025,1 23 60 0,0
18.09.2019 17:00:00 19,9 7,6 22,8 18,1 22 12 41 22 NO 1025,5 24 60 0,0
18.09.2019 16:00:00 20,0 7,4 22,6 17,7 19 11 43 23 ONO 1025,7 20 60 0,0
18.09.2019 15:00:00 19,1 6,2 22,5 17,2 24 13 45 25 ONO 1026,1 22 60 0,0
18.09.2019 14:00:00 18,6 6,7 21,0 16,9 26 14 44 24 NO 1026,3 21 60 0,0
18.09.2019 13:00:00 17,5 7,2 19,8 16,8 25 13 44 24 NO 1026,6 23 60 0,0
18.09.2019 12:00:00 16,0 7,7 16,3 16,6 24 13 47 26 O 1026,8 25 60 0,0
18.09.2019 11:00:00 14,8 7,1 16,1 16,7 24 13 45 24 ONO 1026,9 27 60 0,0
18.09.2019 10:00:00 13,9 7,2 14,1 16,8 24 13 42 23 ONO 1026,7 30 60 0,0
18.09.2019 09:00:00 - - - - - - - - - - - - -
18.09.2019 08:00:00 11,6 8,3 10,2 17,2 18 10 35 19 ONO 1025,6 31 0 0,0
18.09.2019 07:00:00 11,6 8,4 10,6 17,4 18 10 31 17 O 1025,2 31 0 0,0
18.09.2019 06:00:00 11,8 8,6 11,0 17,6 21 11 36 20 ONO 1025,0 33 0 0,0
18.09.2019 05:00:00 12,4 9,4 11,6 17,8 23 13 42 23 O 1024,8 32 0 0,0
18.09.2019 04:00:00 13,0 9,8 12,3 18,0 23 13 37 20 ONO 1024,7 33 0 0,0
18.09.2019 03:00:00 13,4 10,6 12,5 18,2 15 8 34 18 ONO 1024,6 32 0 0,0
18.09.2019 02:00:00 13,6 10,8 12,5 18,4 16 9 29 15 ONO 1024,4 32 0 0,0
18.09.2019 01:00:00 13,9 10,5 12,5 18,6 16 9 35 19 ONO 1024,3 35 0 0,0
18.09.2019 00:00:00 13,9 11,2 12,9 18,9 16 8 32 17 ONO 1024,3 26 0 0,0
17.09.2019 23:00:00 14,4 11,4 13,5 19,0 18 10 37 20 ONO 1024,1 21 0 0,0
17.09.2019 22:00:00 15,4 12,7 14,4 19,2 19 10 35 19 NO 1023,6 17 0 0,0
17.09.2019 21:00:00 16,3 13,4 15,4 19,2 18 10 35 19 NO 1023,2 29 0 0,0
17.09.2019 20:00:00 17,5 14,6 17,3 19,2 19 10 33 18 NNO 1022,7 31 54 0,0
17.09.2019 19:00:00 19,0 14,3 20,7 19,1 17 9 36 19 NNO 1022,8 25 60 0,0
17.09.2019 18:00:00 19,0 14,7 20,3 19,0 23 12 38 20 NNO 1022,9 25 43 0,0
17.09.2019 17:00:00 19,8 14,8 19,9 18,9 21 11 31 17 NNO 1023,0 38 9 0,0
17.09.2019 16:00:00 19,2 15,5 19,3 18,8 17 9 33 18 NO 1023,3 31 0 0,0
17.09.2019 15:00:00 18,5 15,6 19,0 18,6 20 11 38 21 NO 1023,3 27 0 0,0
17.09.2019 14:00:00 20,5 15,5 20,2 18,5 20 11 39 21 NO 1023,1 59 0 0,0
17.09.2019 13:00:00 19,2 16,8 19,0 18,4 19 10 28 15 NNO 1023,3 15 0 0,0
17.09.2019 12:00:00 18,0 16,5 19,1 18,3 13 7 21 11 N 1023,5 19 0 0,0
17.09.2019 11:00:00 18,3 16,3 19,4 18,2 10 5 18 10 NNO 1023,5 18 0 0,0
17.09.2019 10:00:00 17,5 15,8 17,1 18,3 5 3 10 6 NNO 1023,1 16 4 0,0
17.09.2019 09:00:00 16,4 15,1 15,9 18,3 3 2 8 4 O 1023,0 18 0 0,0
17.09.2019 08:00:00 15,9 14,9 15,4 18,4 4 2 11 6 O 1022,7 16 0 0,0
17.09.2019 07:00:00 16,0 15,2 15,9 18,5 9 5 16 9 ONO 1022,6 15 0 0,0
17.09.2019 06:00:00 16,4 15,3 16,3 18,6 7 4 18 10 O 1022,1 22 0 0,0
17.09.2019 05:00:00 16,4 15,1 16,0 18,7 5 3 9 5 NO 1022,4 29 0 0,0
17.09.2019 04:00:00 16,2 14,7 16,0 18,7 5 3 14 8 N 1022,5 32 0 0,0
17.09.2019 03:00:00 16,2 14,6 16,1 18,8 9 5 15 8 NO 1022,7 30 0 0,0
17.09.2019 02:00:00 16,4 14,9 16,1 19,0 8 4 16 9 NNO 1022,9 30 0 0,0
17.09.2019 01:00:00 16,2 14,9 15,9 19,1 9 5 18 10 N 1023,4 30 0 0,0
17.09.2019 00:00:00 16,0 14,9 15,8 19,2 11 6 23 12 NNW 1023,4 31 0 0,0
16.09.2019 23:00:00 16,0 14,9 16,0 19,3 15 8 21 11 NNW 1023,4 26 0 0,0
16.09.2019 22:00:00 16,1 14,8 16,1 19,4 14 7 21 12 N 1023,4 20 0 0,0
16.09.2019 21:00:00 16,0 15,0 15,9 19,5 9 5 22 12 NNW 1023,2 23 0 0,0
16.09.2019 20:00:00 15,8 14,7 16,0 19,6 16 9 27 15 NNW 1023,0 36 0 0,0
16.09.2019 19:00:00 16,3 15,2 16,9 19,5 16 9 31 17 NNW 1022,8 31 0 0,0
16.09.2019 18:00:00 16,3 15,5 17,4 19,4 20 11 31 17 NNW 1023,0 9 0 0,0
16.09.2019 17:00:00 17,1 15,3 18,3 19,1 22 12 33 18 NNW 1023,1 37 4 0,0
16.09.2019 16:00:00 17,8 15,2 20,8 18,7 16 9 29 16 NW 1023,1 26 35 0,0
16.09.2019 15:00:00 19,6 16,2 24,6 18,2 15 8 34 18 NNW 1023,4 20 60 0,0
16.09.2019 14:00:00 18,9 15,0 21,7 17,8 16 8 24 13 NNW 1023,6 28 41 0,0
16.09.2019 13:00:00 18,4 15,3 21,0 17,6 14 8 24 13 NNW 1023,9 29 24 0,0
16.09.2019 12:00:00 18,6 15,1 19,5 17,4 12 7 25 13 NNW 1023,9 11 50 0,0
16.09.2019 11:00:00 17,2 14,7 16,2 17,4 16 9 24 13 NW 1024,0 18 26 0,0
16.09.2019 10:00:00 15,8 15,3 13,4 17,6 6 4 11 6 W 1023,5 12 44 0,0
16.09.2019 09:00:00 12,8 12,8 8,9 17,8 2 1 10 6 Z 1023,7 2,9 36 0,0
16.09.2019 08:00:00 11,5 11,5 9,2 18,0 5 3 10 5 WZW 1023,4 0,3 0 0,0
16.09.2019 07:00:00 11,1 11,1 9,0 18,1 5 3 9 5 ZW 1023,0 0,4 0 0,0
16.09.2019 06:00:00 11,6 11,6 9,1 18,4 5 3 10 6 WZW 1023,2 0,5 0 0,2
16.09.2019 05:00:00 11,3 11,3 8,4 18,6 8 4 9 5 WNW 1023,4 0,4 0 0,0
16.09.2019 04:00:00 14,5 14,2 8,9 18,8 6 3 13 7 NNW 1023,7 11 0 0,0
16.09.2019 03:00:00 13,5 13,5 10,3 19,1 9 5 14 7 NW 1024,0 10 0 0,0
16.09.2019 02:00:00 13,7 13,7 7,7 19,4 8 4 14 8 NNW 1024,0 7 0 0,0
16.09.2019 01:00:00 13,5 13,5 7,5 19,7 5 3 10 6 NW 1024,4 0,2 0 0,0
16.09.2019 00:00:00 13,8 13,5 11,4 20,0 9 5 18 10 NNW 1024,5 13 0 0,2
15.09.2019 23:00:00 14,7 14,2 12,8 20,2 14 7 19 10 NNW 1024,5 15 0 0,0
15.09.2019 22:00:00 14,5 13,9 12,9 20,5 11 6 17 9 NW 1024,4 13 0 0,0
15.09.2019 21:00:00 14,8 13,3 13,2 20,6 10 5 18 10 NW 1024,5 23 0 0,0
15.09.2019 20:00:00 16,9 14,2 17,2 20,6 15 8 24 13 NNW 1024,4 35 58 0,0
15.09.2019 19:00:00 18,0 14,1 20,8 20,5 18 10 28 15 NNW 1024,2 54 60 0,0
15.09.2019 18:00:00 19,6 12,4 23,5 20,2 15 8 22 12 N 1024,1 51 60 0,0
15.09.2019 17:00:00 20,1 13,5 25,3 19,8 14 8 25 13 NNW 1024,4 48 60 0,0
15.09.2019 16:00:00 20,2 12,9 25,6 19,2 14 7 24 13 N 1025,0 40 60 0,0
15.09.2019 15:00:00 20,7 12,7 25,8 18,7 12 7 26 14 N 1025,5 37 60 0,0
15.09.2019 14:00:00 20,5 13,5 25,9 18,3 17 9 28 15 N 1026,2 37 60 0,0
15.09.2019 13:00:00 20,5 11,9 23,8 18,0 13 7 25 13 NNO 1026,3 37 60 0,0
15.09.2019 12:00:00 19,3 12,8 21,7 17,8 18 10 27 14 NNO 1026,5 19 60 0,0
15.09.2019 11:00:00 18,9 14,4 20,2 17,7 15 8 25 14 NNO 1026,3 19 60 0,0
15.09.2019 10:00:00 17,8 15,1 16,6 17,8 17 9 26 14 NNO 1026,4 19 60 0,0
15.09.2019 09:00:00 16,6 15,8 10,6 18,0 9 5 14 8 NNO 1026,4 10 36 0,0
15.09.2019 08:00:00 13,3 12,8 10,4 18,2 4 2 10 5 NNO 1026,3 0,1 0 0,0
15.09.2019 07:00:00 15,2 15,0 13,6 18,4 8 4 15 8 NO 1025,7 3,6 0 0,0
15.09.2019 06:00:00 15,1 15,1 9,7 18,6 9 5 15 8 NNO 1025,8 6 0 0,0
15.09.2019 05:00:00 13,8 13,8 8,2 18,9 5 3 8 4 NO 1026,5 1,3 0 0,2
15.09.2019 04:00:00 13,2 13,2 8,5 19,2 3 2 7 4 NNO 1026,4 6 0 0,0
15.09.2019 03:00:00 13,2 12,3 10,5 19,4 5 3 11 6 NO 1026,6 13 0 0,0
15.09.2019 02:00:00 14,2 13,2 9,6 19,7 5 3 10 5 NNO 1026,8 18 0 0,0
15.09.2019 01:00:00 14,4 13,1 10,4 20,0 6 4 9 5 NNO 1027,1 24 0 0,0
15.09.2019 00:00:00 16,0 13,8 13,5 20,2 8 4 13 7 NO 1027,3 14 0 0,0
14.09.2019 23:00:00 16,9 14,0 15,4 20,4 10 5 18 10 ONO 1027,6 25 0 0,0
14.09.2019 22:00:00 18,2 14,9 16,9 20,6 12 6 21 11 NO 1027,6 25 0 0,0
14.09.2019 21:00:00 18,6 16,2 17,5 20,7 12 6 27 15 NNO 1027,6 18 0 0,0
14.09.2019 20:00:00 19,8 16,1 19,8 20,8 18 10 33 18 NNO 1027,2 23 60 0,0
14.09.2019 19:00:00 20,8 16,6 22,7 20,6 18 10 39 21 NNO 1027,4 31 60 0,0
14.09.2019 18:00:00 21,7 16,9 24,3 20,3 23 12 35 19 NNO 1027,2 20 60 0,0
14.09.2019 17:00:00 22,7 15,3 26,3 20,0 19 10 31 17 NNO 1027,6 33 60 0,0
14.09.2019 16:00:00 22,8 15,9 26,3 19,5 20 11 31 17 N 1028,4 20 60 0,0
14.09.2019 15:00:00 22,2 16,2 27,0 18,9 16 9 26 14 N 1028,7 19 60 0,0
14.09.2019 14:00:00 21,8 16,5 26,5 18,4 14 8 26 14 NO 1029,4 19 60 0,0
14.09.2019 13:00:00 21,4 15,7 24,8 18,1 10 5 23 12 NO 1030,2 17 60 0,0
14.09.2019 12:00:00 19,7 15,8 23,4 17,9 12 6 22 12 O 1030,5 9 60 0,0
14.09.2019 11:00:00 19,1 15,2 21,4 17,9 15 8 26 14 O 1031,0 18 60 0,0
14.09.2019 10:00:00 18,1 15,5 18,1 17,9 14 8 22 12 O 1031,1 10 60 0,0
14.09.2019 09:00:00 16,6 15,6 15,3 18,1 10 5 20 11 ONO 1031,3 8 44 0,0
14.09.2019 08:00:00 16,1 15,1 15,2 18,2 12 7 21 11 ONO 1031,3 8 0 0,0
14.09.2019 07:00:00 16,2 15,4 15,1 18,3 11 6 20 11 NO 1031,3 7 0 0,0
14.09.2019 06:00:00 15,8 15,3 14,8 18,4 10 5 16 9 ONO 1031,1 6 0 0,0
14.09.2019 05:00:00 16,0 15,4 15,5 18,6 11 6 19 10 O 1031,0 7 0 0,0
14.09.2019 04:00:00 16,4 15,8 16,0 18,7 12 6 21 12 ONO 1031,3 6 0 0,0
14.09.2019 03:00:00 17,1 16,1 16,3 18,8 13 7 23 13 NO 1031,8 9 0 0,0
14.09.2019 02:00:00 17,2 16,2 16,8 18,9 12 6 28 15 NO 1032,2 10 0 0,0
14.09.2019 01:00:00 17,3 16,5 16,2 19,1 16 8 23 12 NO 1032,3 16 0 0,0
14.09.2019 00:00:00 17,1 16,0 16,3 19,2 14 7 23 13 NO 1032,8 23 0 0,0
13.09.2019 23:00:00 17,7 16,6 16,7 19,3 13 7 23 12 NNO 1032,7 27 0 0,0
13.09.2019 22:00:00 18,3 17,0 17,7 19,4 12 6 21 11 NNO 1032,4 27 0 0,0
13.09.2019 21:00:00 17,8 16,7 17,5 19,5 9 5 22 12 NNO 1032,5 31 2 0,0
13.09.2019 20:00:00 17,7 16,4 18,0 19,5 10 6 24 13 NNO 1032,2 36 58 0,0
13.09.2019 19:00:00 18,1 16,4 18,7 19,3 15 8 25 13 N 1032,4 43 1 0,0
13.09.2019 18:00:00 18,6 16,2 19,8 19,2 16 9 25 13 N 1032,5 38 0 0,0
13.09.2019 17:00:00 19,3 15,8 21,0 18,9 16 8 22 12 NNO 1033,0 37 36 0,0
13.09.2019 16:00:00 19,6 15,9 21,0 18,7 14 7 21 11 NNO 1033,4 45 2 0,0
13.09.2019 15:00:00 19,4 15,5 21,2 18,4 10 5 20 11 NNO 1033,5 33 3 0,0
13.09.2019 14:00:00 19,7 16,0 21,8 18,2 9 5 17 9 N 1033,6 28 5 0,0
13.09.2019 13:00:00 18,9 15,6 20,5 18,1 4 2 10 6 NNW 1034,0 29 1 0,0
13.09.2019 12:00:00 18,6 14,9 19,4 18,0 4 2 12 6 WZW 1034,0 30 2 0,0
13.09.2019 11:00:00 17,6 14,5 17,8 18,0 5 3 12 6 WZW 1034,2 29 0 0,0
13.09.2019 10:00:00 17,1 14,4 17,2 18,0 7 4 11 6 WZW 1034,0 30 0 0,0
13.09.2019 09:00:00 16,8 14,8 16,2 18,1 4 2 11 6 W 1033,4 32 0 0,0
13.09.2019 08:00:00 16,4 14,6 16,0 18,2 5 3 10 6 W 1033,4 35 0 0,0
13.09.2019 07:00:00 16,6 15,3 16,3 18,2 4 2 9 5 WZW 1033,2 31 0 0,0

tt = temperatuur
td = dauwpunt
tt 5cm = temperatuur 5cm
tt -20cm = temperatuur -20cm
ff = windsnelheid
fx = windstoten
dd = windrichting
ppp = luchtdruk
vv = zicht
sd = Zonneschijnduur
rr = neerslag

Weerstations in de omgeving